NQ2U-13 Weather Reports


Display with metric or nautical units.
time (UTC)temp
F
wind
direction
speed
MPH
gust
MPH
rain 1hr
in
rain 24hr
in
rain mn
in
humidity
%
barometer
mb
20260504050530 43 0 0.0 2.0 0.00 0.00 0.00 72 1009.3
20260504045529 43 0 0.0 2.0 0.00 0.00 0.00 72 1009.4
20260504045029 43 0 0.0 2.0 0.00 0.00 0.00 71 1009.5
20260504044546 44 168 0.0 2.0 0.00 0.00 0.00 71 1009.5
20260504044029 44 0 0.0 3.0 0.00 0.00 0.00 71 1009.6
20260504043530 44 0 0.0 3.0 0.00 0.00 0.00 71 1009.8
20260504043049 44 0 0.0 2.0 0.00 0.00 0.00 71 1009.8
20260504042529 43 0 0.0 2.0 0.00 0.00 0.00 71 1009.9
20260504042030 43 0 0.0 2.0 0.00 0.00 0.00 71 1009.8
20260504041542 43 0 0.0 1.0 0.00 0.00 0.00 72 1010.0
20260504041029 43 0 0.0 2.0 0.00 0.00 0.00 72 1010.0
20260504040529 43 0 0.0 2.0 0.00 0.00 0.00 72 1010.0
20260504040049 43 0 0.0 2.0 0.00 0.00 0.00 72 1009.9
20260504035535 43 0 0.0 2.0 0.00 0.00 0.00 72 1010.0
20260504035029 43 0 0.0 2.0 0.00 0.00 0.00 72 1009.9
20260504034546 43 0 0.0 2.0 0.00 0.00 0.00 72 1009.8
20260504034030 43 0 0.0 2.0 0.00 0.00 0.00 72 1009.9
20260504033529 43 0 0.0 1.0 0.00 0.00 0.00 71 1009.9
20260504033044 43 0 0.0 1.0 0.00 0.00 0.00 71 1010.0
20260504032529 43 0 0.0 1.0 0.00 0.00 0.00 71 1009.9
20260504032026 43 0 0.0 1.0 0.00 0.00 0.00 71 1009.9
20260504031547 43 0 0.0 3.0 0.00 0.00 0.00 70 1009.8
20260504031029 43 0 0.0 3.0 0.00 0.00 0.00 70 1009.8
20260504030529 43 145 0.0 3.0 0.00 0.00 0.00 70 1009.8
20260504030040 43 0 0.0 1.0 0.00 0.00 0.00 70 1009.8
20260504025529 43 0 0.0 2.0 0.00 0.00 0.00 70 1009.8
20260504025032 43 0 0.0 2.0 0.00 0.00 0.00 70 1009.9
20260504024542 43 0 0.0 3.0 0.00 0.00 0.00 70 1009.8
20260504024029 43 191 0.0 3.0 0.00 0.00 0.00 70 1009.8
20260504023529 43 0 0.0 1.0 0.00 0.00 0.00 70 1009.7
20260504023045 43 0 0.0 2.0 0.00 0.00 0.00 70 1009.7
20260504022529 43 180 0.0 2.0 0.00 0.00 0.00 70 1009.7
20260504022029 43 208 0.0 1.0 0.00 0.00 0.00 69 1009.7
20260504021542 42 0 0.0 2.0 0.00 0.00 0.00 70 1009.6
20260504021028 42 0 0.0 2.0 0.00 0.00 0.00 70 1009.7
20260504020525 42 0 0.0 2.0 0.00 0.00 0.00 70 1009.6
20260504020043 42 0 0.0 0.0 0.00 0.00 0.00 70 1009.7
20260504015526 42 0 0.0 0.0 0.00 0.00 0.00 69 1009.6
20260504015031 43 0 0.0 0.0 0.00 0.00 0.00 69 1009.8
20260504014539 43 0 0.0 0.0 0.00 0.00 0.00 69 1009.7
20260504014031 43 0 0.0 0.0 0.00 0.00 0.00 70 1009.7
20260504013531 43 0 0.0 0.0 0.00 0.00 0.00 69 1009.7
20260504013046 43 0 0.0 0.0 0.00 0.00 0.00 68 1009.6
20260504012531 44 0 0.0 1.0 0.00 0.00 0.00 67 1009.5
20260504012031 44 0 0.0 1.0 0.00 0.00 0.00 67 1009.5
20260504011544 44 0 0.0 1.0 0.00 0.00 0.00 66 1009.6
20260504011030 44 0 0.0 1.0 0.00 0.00 0.00 65 1009.5
20260504010531 44 0 0.0 1.0 0.00 0.00 0.00 65 1009.5
20260504010043 45 329 0.0 1.0 0.00 0.00 0.00 64 1009.3
20260504005531 45 0 0.0 0.0 0.00 0.00 0.00 63 1009.2
20260504005029 46 0 0.0 0.0 0.00 0.00 0.00 62 1009.2
20260504004545 46 0 0.0 0.0 0.00 0.00 0.00 62 1009.2
20260504004025 47 0 0.0 0.0 0.00 0.00 0.00 60 1009.2
20260504003529 47 0 0.0 0.0 0.00 0.00 0.00 59 1009.1
20260504003046 48 0 0.0 1.0 0.00 0.00 0.00 58 1009.1
20260504002529 49 0 0.0 1.0 0.00 0.00 0.00 56 1009.0
20260504002030 49 0 0.0 2.0 0.00 0.00 0.00 54 1009.0
20260504001546 50 0 0.0 2.0 0.00 0.00 0.00 52 1009.0
20260504001029 51 0 0.0 3.0 0.00 0.00 0.00 52 1008.9
20260504000533 51 0 1.0 3.0 0.00 0.00 0.00 50 1008.9
20260504000112 51 0 0.0 3.0 0.00 0.00 0.00 50 1008.9
20260503235530 51 0 0.0 3.0 0.00 0.00 0.00 48 1008.8
20260503235030 52 0 0.0 2.0 0.00 0.00 0.00 48 1008.9
20260503234550 52 0 0.0 1.0 0.00 0.00 0.00 48 1008.9
20260503234029 52 0 0.0 2.0 0.00 0.00 0.00 47 1008.8
20260503233525 52 0 0.0 3.0 0.00 0.00 0.00 46 1008.7
20260503233038 52 4 1.0 5.0 0.00 0.00 0.00 47 1008.7
20260503232525 52 275 0.0 5.0 0.00 0.00 0.00 46 1008.7
20260503232029 52 300 1.0 5.0 0.00 0.00 0.00 45 1008.6
20260503231541 52 331 1.0 5.0 0.00 0.00 0.00 44 1008.5
20260503231029 53 0 0.0 9.0 0.00 0.00 0.00 43 1008.4
20260503230532 53 304 1.0 9.0 0.00 0.00 0.00 44 1008.2
20260503230046 53 287 1.0 9.0 0.00 0.00 0.00 43 1008.3
20260503225529 53 302 3.0 9.0 0.00 0.00 0.00 42 1008.2
20260503225029 53 113 1.0 5.0 0.00 0.00 0.00 42 1008.1
20260503224543 53 208 1.0 5.0 0.00 0.00 0.00 40 1008.1
20260503224029 54 228 0.0 8.0 0.00 0.00 0.00 39 1008.1
20260503223531 54 13 2.0 8.0 0.00 0.00 0.00 40 1008.1
20260503223042 54 304 0.0 6.0 0.00 0.00 0.00 39 1008.2
20260503222530 54 307 2.0 11.0 0.00 0.00 0.00 40 1008.1
20260503222025 54 347 2.0 11.0 0.00 0.00 0.00 38 1008.0
20260503221549 53 330 4.0 10.0 0.00 0.00 0.00 38 1008.0
20260503221029 54 17 2.0 10.0 0.00 0.00 0.00 40 1007.9
20260503220530 54 63 2.0 10.0 0.00 0.00 0.00 39 1008.0
20260503220048 54 280 3.0 9.0 0.00 0.00 0.00 36 1007.9
20260503215529 55 333 3.0 9.0 0.00 0.00 0.00 37 1007.9
20260503215026 55 173 2.0 11.0 0.00 0.00 0.00 38 1007.9
20260503214550 56 356 4.0 11.0 0.00 0.00 0.00 36 1007.9
20260503214031 56 31 2.0 9.0 0.00 0.00 0.00 36 1007.8
20260503213531 56 230 3.0 12.0 0.00 0.00 0.00 35 1007.8
20260503213041 56 13 4.0 16.0 0.00 0.00 0.00 34 1007.8
20260503212535 55 7 5.0 16.0 0.00 0.00 0.00 36 1007.9
20260503212032 56 38 4.0 16.0 0.00 0.00 0.00 35 1007.9
20260503211547 55 309 2.0 13.0 0.00 0.00 0.00 33 1007.7
20260503211032 56 310 4.0 13.0 0.00 0.00 0.00 32 1007.8
20260503210531 56 331 3.0 17.0 0.00 0.00 0.00 32 1007.8
20260503210045 56 13 3.0 17.0 0.00 0.00 0.00 31 1007.8
20260503205531 56 293 5.0 11.0 0.00 0.00 0.00 31 1007.9
20260503205031 56 63 3.0 11.0 0.00 0.00 0.00 36 1007.6
20260503204544 56 29 4.0 11.0 0.00 0.00 0.00 34 1007.7
20260503204032 56 3 2.0 12.0 0.00 0.00 0.00 32 1007.7
20260503203532 56 352 3.0 18.0 0.00 0.00 0.00 33 1007.9
20260503203104 55 128 5.0 18.0 0.00 0.00 0.00 33 1008.1
20260503202532 56 325 2.0 10.0 0.00 0.00 0.00 36 1007.9
20260503202032 55 246 4.0 13.0 0.00 0.00 0.00 34 1008.1
20260503201546 55 63 4.0 14.0 0.00 0.00 0.00 37 1008.0
20260503201033 55 332 5.0 14.0 0.00 0.00 0.00 37 1008.0
20260503200531 55 93 5.0 12.0 0.00 0.00 0.00 37 1008.2
20260503200046 55 323 4.0 12.0 0.00 0.00 0.00 34 1008.5
20260503195531 55 320 3.0 12.0 0.00 0.00 0.00 36 1008.4
20260503195031 54 320 3.0 12.0 0.00 0.00 0.00 37 1008.5
20260503194552 54 302 5.0 11.0 0.00 0.00 0.00 33 1008.7
20260503194031 55 358 3.0 16.0 0.00 0.00 0.00 36 1008.7
20260503193532 56 325 2.0 16.0 0.00 0.00 0.00 38 1008.8
20260503193047 55 94 4.0 12.0 0.00 0.00 0.00 38 1008.7
20260503192532 54 347 4.0 11.0 0.00 0.00 0.00 37 1008.8
20260503192032 54 331 4.0 11.0 0.00 0.00 0.00 36 1008.9
20260503191549 54 356 2.0 11.0 0.00 0.00 0.00 40 1008.8
20260503191031 52 333 5.0 12.0 0.00 0.00 0.00 37 1008.9
20260503190531 53 290 4.0 12.0 0.00 0.00 0.00 36 1009.1
20260503190048 55 354 4.0 14.0 0.00 0.00 0.00 41 1009.0
20260503185532 54 38 4.0 16.0 0.00 0.00 0.00 41 1009.0
20260503185033 53 329 3.0 16.0 0.00 0.00 0.00 40 1009.0
20260503184549 51 21 4.0 10.0 0.00 0.00 0.00 42 1009.2
20260503184031 52 17 4.0 11.0 0.00 0.00 0.00 41 1009.3
20260503183532 52 180 3.0 15.0 0.00 0.00 0.00 40 1009.1
20260503183049 52 42 4.0 15.0 0.00 0.00 0.00 43 1009.2
20260503182531 52 313 3.0 15.0 0.00 0.00 0.00 41 1009.5
20260503182031 51 345 3.0 12.0 0.00 0.00 0.00 44 1009.4
20260503181546 52 308 3.0 12.0 0.00 0.00 0.00 42 1009.6
20260503181031 51 4 3.0 13.0 0.00 0.00 0.00 45 1009.6
20260503180532 50 324 4.0 13.0 0.00 0.00 0.00 42 1009.6
20260503180048 51 319 4.0 13.0 0.00 0.00 0.00 44 1009.7
20260503175532 50 333 3.0 10.0 0.00 0.00 0.00 42 1009.7
20260503175032 51 250 4.0 10.0 0.00 0.00 0.00 41 1009.8
20260503174545 51 329 3.0 10.0 0.00 0.00 0.00 44 1009.8
20260503174032 51 292 3.0 10.0 0.00 0.00 0.00 46 1009.9
20260503173532 51 322 3.0 9.0 0.00 0.00 0.00 45 1009.9
20260503173053 50 304 2.0 9.0 0.00 0.00 0.00 45 1010.0
20260503172530 49 0 1.0 9.0 0.00 0.00 0.00 47 1010.0
20260503172031 48 339 3.0 13.0 0.00 0.00 0.00 45 1010.2
20260503171542 47 184 4.0 13.0 0.00 0.00 0.00 46 1010.2
20260503171032 47 321 4.0 9.0 0.00 0.00 0.00 46 1010.3
20260503170532 47 23 3.0 12.0 0.00 0.00 0.00 45 1010.2
20260503150531 46 278 2.0 9.0 0.00 0.00 0.00 49 1010.4
20260503131030 44 27 5.0 14.0 0.00 0.00 0.00 57 1010.9
20260503130531 44 358 4.0 12.0 0.00 0.00 0.00 59 1010.9
20260503110531 38 0 0.0 0.0 0.00 0.00 0.00 77 1010.6
20260503081545 34 0 0.0 2.0 0.00 0.00 0.00 84 1010.4
20260503081029 34 0 0.0 1.0 0.00 0.00 0.00 84 1010.4
20260503080530 34 0 0.0 1.0 0.00 0.00 0.00 84 1010.4
20260503072530 34 0 0.0 2.0 0.00 0.00 0.00 83 1010.6
20260503072030 34 0 0.0 2.0 0.00 0.00 0.00 84 1010.8
20260503071541 34 144 0.0 0.0 0.00 0.00 0.00 84 1010.7
20260503071030 34 0 0.0 1.0 0.00 0.00 0.00 84 1010.8
20260503070529 33 0 0.0 1.0 0.00 0.00 0.00 85 1010.8